File timestamp: Tue Aug 30 03:00:00 2016, Internal temp: 17.9290771484375
1472526001, 0.00433807028457522, -0.0769248455762863, 0.0886639952659607, 32915, 31974, 23267, 122.017189025879
1472526002, 0.00147231516893953, -0.0775498673319817, 0.0882422477006912, 32905, 31990, 23264, NaN
1472526003, -0.000237234547967091, -0.077121764421463, 0.0882589519023895, 32916, 31988, 23260, NaN
1472526004.008, -0.00138430623337626, -0.0777104422450066, 0.0879325866699219, 32911, 31980, 23268, NaN
1472526005.008, -0.00171856477390975, -0.0772078111767769, 0.0874204039573669, 32914, 31972, 23263, NaN
1472526006.008, -0.0017016064375639, -0.0772231593728065, 0.0871797949075699, 32911, 31989, 23269, NaN
1472526006.998, -0.000491698447149247, -0.0772655606269836, 0.0872139558196068, 32914, 31972, 23280, NaN
1472526007.998, 0.00134214118588716, -0.0778977498412132, 0.0861873179674149, 32927, 31975, 23256, NaN
1472526008.998, 0.00394688406959176, -0.0773179531097412, 0.0868885889649391, 32915, 31978, 23267, NaN
1472526009.998, 0.00692685460671782, -0.077573224902153, 0.0875177830457687, 32913, 31979, 23261, NaN
1472526010.998, 0.0105083389207721, -0.0772752463817596, 0.086732842028141, 32910, 31998, 23265, NaN
1472526011.998, 0.0142305726185441, -0.0766059905290604, 0.0866763591766357, 32918, 31973, 23271, NaN
1472526012.998, 0.0183996167033911, -0.0761545822024345, 0.0876958817243576, 32903, 31975, 23276, NaN
1472526013.998, 0.0220359414815903, -0.074952058494091, 0.087870255112648, 32908, 31982, 23270, NaN
1472526014.998, 0.0246610604226589, -0.0753013491630554, 0.0881719291210175, 32913, 31976, 23264, NaN
1472526015.998, 0.0269101727753878, -0.0753163844347, 0.0892042070627213, 32904, 31979, 23271, NaN
1472526016.998, 0.0277816914021969, -0.0748279988765717, 0.0894196331501007, 32902, 31981, 23280, NaN
1472526017.998, 0.0278661753982306, -0.0748966708779335, 0.0885305404663086, 32897, 31982, 23276, NaN
1472526018.998, 0.0275500100106001, -0.0741608291864395, 0.0884930267930031, 32911, 31980, 23270, NaN
1472526019.998, 0.0283909365534782, -0.0738489478826523, 0.0881928950548172, 32908, 31974, 23274, NaN
1472526020.998, 0.0300293620675802, -0.0730887725949287, 0.0878409147262573, 32910, 31975, 23269, NaN
1472526021.998, 0.0315763466060162, -0.0732631012797356, 0.0884804353117943, 32908, 31977, 23266, NaN
1472526022.998, 0.0327913798391819, -0.0722651854157448, 0.0888655111193657, 32917, 31978, 23269, NaN
1472526023.998, 0.033755749464035, -0.0725315064191818, 0.0884210988879204, 32911, 31978, 23266, NaN
1472526024.998, 0.0328072011470795, -0.0723601505160332, 0.0886096358299255, 32917, 31971, 23263, NaN
1472526025.998, 0.0312126819044352, -0.0734325349330902, 0.0889729037880898, 32913, 31980, 23265, NaN
1472526026.998, 0.0293007101863623, -0.0735658928751945, 0.0890345722436905, 32902, 31984, 23269, NaN
1472526027.998, 0.0261107981204987, -0.0730223506689072, 0.0896709859371185, 32906, 31978, 23277, NaN
1472526028.998, 0.0219330657273531, -0.0730816498398781, 0.089854508638382, 32912, 31973, 23260, NaN
1472526029.998, 0.0178322065621614, -0.0732883140444756, 0.0893691703677177, 32924, 31983, 23244, NaN
1472526030.998, 0.0136632015928626, -0.0732980594038963, 0.0899991765618324, 32915, 31979, 23270, NaN
1472526031.998, 0.00976833887398243, -0.0729884952306747, 0.0904759615659714, 32926, 31984, 23268, NaN
1472526031.998, 0.00646322499960661, -0.0729916840791702, 0.0899897739291191, 32910, 31979, 23270, NaN
1472526033.002, 0.0024143538903445, -0.073048360645771, 0.0899907499551773, 32903, 31980, 23260, NaN
1472526034.002, -0.0013415387365967, -0.072052925825119, 0.0898429900407791, 32929, 31982, 23258, NaN
1472526035.002, -0.00396825606003404, -0.0728285312652588, 0.0900249853730202, 32917, 31985, 23265, NaN
1472526036.002, -0.006830511149019, -0.0726066753268242, 0.0905161872506142, 32908, 31987, 23276, NaN
1472526036.002, -0.00853506941348314, -0.0728952437639236, 0.0901510939002037, 32901, 31969, 23275, NaN
1472526037.006, -0.0107321888208389, -0.0731626003980637, 0.0909031704068184, 32914, 31983, 23273, NaN
1472526038.006, -0.0126665402203798, -0.0734567418694496, 0.0913691520690918, 32907, 31967, 23269, NaN
1472526039.006, -0.0147099392488599, -0.0731929168105125, 0.0908921509981155, 32910, 31986, 23264, NaN
1472526040.006, -0.016029879450798, -0.0731601491570473, 0.0910921394824982, 32915, 31972, 23264, NaN
1472526040.006, -0.0167890563607216, -0.0729346200823784, 0.0918501690030098, 32912, 31986, 23260, NaN
1472526041.012, -0.0115701258182526, -0.072870284318924, 0.0921121016144753, 32914, 31966, 23267, NaN
1472526042.012, 0.00289058499038219, -0.0734576433897018, 0.0927688404917717, 32897, 31970, 23283, NaN
1472526043.012, 0.0274144485592842, -0.0728946179151535, 0.0938472673296928, 32915, 31984, 23249, NaN
1472526044.012, 0.0609602779150009, -0.0725885704159737, 0.0939207151532173, 32911, 31973, 23259, NaN
1472526044.012, 0.0965935289859772, -0.0721340626478195, 0.0934734120965004, 32922, 31977, 23264, NaN
1472526045.018, 0.0638545900583267, -0.0730642080307007, 0.0937778800725937, 32905, 31973, 23267, NaN
1472526046.018, 0.0359438396990299, -0.0725265070796013, 0.0935127660632133, 32894, 31981, 23268, NaN
1472526047.018, 0.012479386292398, -0.072712667286396, 0.0933151990175247, 32920, 31975, 23269, NaN
1472526048.018, -0.00625618640333414, -0.0729700699448586, 0.0930773094296455, 32912, 31979, 23279, NaN
1472526048.018, -0.0150634925812483, -0.073921836912632, 0.0945595130324364, 32908, 31978, 23273, NaN
1472526049.024, -0.0145779745653272, -0.0736021623015404, 0.0952776297926903, 32902, 31971, 23266, NaN
1472526050.024, -0.00685240188613534, -0.0733862519264221, 0.0961740016937256, 32908, 31971, 23269, NaN
1472526051.024, 0.00630753813311458, -0.073386587202549, 0.0966921225190163, 32897, 31980, 23276, NaN
1472526052.024, 0.0233276020735502, -0.072561576962471, 0.0973633080720901, 32904, 31971, 23275, NaN
1472526053.024, 0.0428493246436119, -0.072847306728363, 0.0975541472434998, 32906, 31981, 23272, NaN
1472526054.024, 0.063714399933815, -0.0730186402797699, 0.0980335399508476, 32900, 31976, 23279, NaN
1472526055.024, 0.0849491134285927, -0.0730483159422874, 0.0985720083117485, 32915, 31975, 23257, NaN
1472526056.024, 0.105749003589153, -0.0728766769170761, 0.0983766242861748, 32907, 31983, 23277, 117.759300231934
1472526056.024, 0.125463724136353, -0.0736765414476395, 0.0983932316303253, 32903, 31973, 23254, NaN
1472526057.032, 0.143582284450531, -0.0731193199753761, 0.0981299132108688, 32910, 31974, 23264, NaN
1472526058.032, 0.159718662500381, -0.0726319029927254, 0.0985146164894104, 32914, 31975, 23267, NaN
1472526059.032, 0.173597916960716, -0.0726415440440178, 0.0988330990076065, 32922, 31978, 23251, NaN
1472526060.032, 0.185042887926102, -0.0730749294161797, 0.0980237498879433, 32907, 31969, 23266, NaN
1472526060.032, 0.193961545825005, -0.0722617134451866, 0.0973923876881599, 32911, 31967, 23267, NaN
1472526061.04, 0.200334936380386, -0.071384459733963, 0.0976386144757271, 32921, 31972, 23253, NaN
1472526062.04, 0.204205930233002, -0.071577362716198, 0.0979341045022011, 32916, 31979, 23267, NaN
1472526063.03, 0.205668672919273, -0.0722076371312141, 0.0985316708683968, 32913, 31979, 23269, NaN
1472526064.03, 0.204858928918839, -0.0718091279268265, 0.098651111125946, 32914, 31979, 23256, NaN
1472526065.03, 0.201945051550865, -0.0717633590102196, 0.0995442122220993, 32905, 31977, 23268, NaN
1472526066.03, 0.197119981050491, -0.0716607943177223, 0.099828839302063, 32911, 31969, 23284, NaN
1472526067.03, 0.190593793988228, -0.0710822939872742, 0.0989303290843964, 32909, 31985, 23267, NaN
1472526068.03, 0.182587295770645, -0.0709284916520119, 0.098915733397007, 32915, 31978, 23269, NaN
1472526069.03, 0.173326209187508, -0.0706649050116539, 0.0985301360487938, 32905, 31974, 23278, NaN
1472526070.03, 0.163036212325096, -0.0706369504332542, 0.0987253785133362, 32912, 31980, 23270, NaN
1472526071.03, 0.1519386023283, -0.070500023663044, 0.0990042462944984, 32916, 31974, 23263, NaN
1472526072.03, 0.140246763825417, -0.0709349885582924, 0.098854087293148, 32918, 31982, 23265, NaN
1472526073.03, 0.128163173794746, -0.0715723633766174, 0.0988418534398079, 32910, 31981, 23262, NaN
1472526074.03, 0.115877009928226, -0.0711324140429497, 0.099087081849575, 32925, 31986, 23261, NaN
1472526075.03, 0.102378517389297, -0.0724417418241501, 0.0995273441076279, 32901, 31979, 23267, NaN
1472526076.03, 0.0848063975572586, -0.0719223245978355, 0.0996177941560745, 32908, 31981, 23281, NaN
1472526077.03, 0.0647203475236893, -0.0717112869024277, 0.0991991981863976, 32906, 31985, 23285, NaN
1472526078.03, 0.0429608784615993, -0.0712349116802216, 0.0987635850906372, 32901, 31984, 23267, NaN
1472526079.03, 0.0229432657361031, -0.0719206780195236, 0.0981398746371269, 32904, 31991, 23273, NaN
1472526080.03, 0.00579944392666221, -0.0717057958245277, 0.0989448204636574, 32903, 31980, 23272, NaN
1472526081.03, -0.00878582708537579, -0.0721482038497925, 0.0992989242076874, 32921, 31983, 23257, NaN
1472526082.03, -0.0200231112539768, -0.0717958584427834, 0.0990897193551064, 32923, 31979, 23264, NaN
1472526083.03, -0.028521990403533, -0.0704693421721458, 0.0989164784550667, 32912, 31983, 23253, NaN
1472526084.03, -0.0340634994208813, -0.0705643519759178, 0.0990711897611618, 32909, 31977, 23262, NaN
1472526085.03, -0.037210501730442, -0.0701183378696442, 0.100114658474922, 32907, 31989, 23261, NaN
1472526086.03, -0.0384949557483196, -0.0696846693754196, 0.100322842597961, 32903, 31973, 23282, NaN
1472526087.03, -0.0380185842514038, -0.0688893646001816, 0.100881189107895, 32913, 31976, 23266, NaN
1472526088.03, -0.0359147787094116, -0.0696364641189575, 0.10086664557457, 32926, 31969, 23263, NaN
1472526089.03, -0.0309448894113302, -0.0693289041519165, 0.100784115493298, 32916, 31978, 23273, NaN
1472526089.03, -0.024811765179038, -0.0697189942002296, 0.100037597119808, 32908, 31993, 23271, NaN
1472526090.034, -0.0179791077971458, -0.0695549622178078, 0.0992731004953384, 32908, 31979, 23268, NaN
1472526091.034, -0.0109062669798732, -0.0690508782863617, 0.0988985523581505, 32923, 31973, 23255, NaN
1472526092.034, -0.00350292399525642, -0.0690309032797813, 0.0986727103590965, 32900, 31965, 23266, NaN
1472526093.034, 0.00338925840333104, -0.0687951892614365, 0.0988587662577629, 32910, 31980, 23270, NaN
1472526093.034, 0.00950477831065655, -0.0688026174902916, 0.0983269289135933, 32908, 31983, 23274, NaN
1472526094.038, 0.0157516356557608, -0.0682647228240967, 0.0986338332295418, 32923, 31978, 23270, NaN
1472526095.038, 0.0220664292573929, -0.0681788474321365, 0.0987682864069939, 32906, 31991, 23262, NaN
1472526096.038, 0.0278441850095987, -0.0682949125766754, 0.0984966456890106, 32908, 31960, 23258, NaN
1472526098.038, 0.0331336185336113, -0.0688470900058746, 0.0982202813029289, 32912, 31981, 23260, NaN
1472526098.038, 0.037619061768055, -0.0690601170063019, 0.0980495810508728, 32920, 31974, 23256, NaN
1472526099.044, 0.0413920357823372, -0.068744458258152, 0.0981368348002434, 32910, 31982, 23262, NaN
1472526100.044, 0.0434284098446369, -0.0682638138532639, 0.0981191024184227, 32909, 31976, 23274, NaN
1472526101.044, 0.0449143759906292, -0.0680545270442963, 0.0971696525812149, 32922, 31972, 23248, NaN
1472526102.044, 0.0455483868718147, -0.0676497593522072, 0.096961073577404, 32916, 31989, 23268, NaN
1472526102.044, 0.0451615490019321, -0.0670911893248558, 0.0966365188360214, 32912, 31969, 23267, NaN
1472526103.05, 0.0437308140099049, -0.0681166350841522, 0.0965934470295906, 32913, 31976, 23264, NaN
1472526104.05, 0.0418377332389355, -0.0683911442756653, 0.0966511368751526, 32909, 31988, 23265, NaN
1472526105.05, 0.0400253608822823, -0.0686769261956215, 0.0967810228466988, 32882, 31979, 23273, NaN
1472526106.05, 0.0367561429738998, -0.0688028708100319, 0.096531368792057, 32912, 31975, 23270, NaN
1472526106.05, 0.0325417555868626, -0.0685926228761673, 0.0967055857181549, 32917, 31977, 23268, NaN
1472526107.056, 0.0270831920206547, -0.0683289021253586, 0.0968947261571884, 32907, 31988, 23262, NaN
1472526108.056, 0.0214570481330156, -0.0684892162680626, 0.0966228544712067, 32906, 31962, 23279, NaN
1472526109.056, 0.0161993578076363, -0.0689852982759476, 0.0965763852000237, 32904, 31975, 23255, NaN
1472526110.056, 0.0109542878344655, -0.0685306936502457, 0.0958881750702858, 32908, 31980, 23263, 117.631393432617
1472526111.056, 0.00548648135736585, -0.0684248208999634, 0.0953587666153908, 32896, 31980, 23273, NaN
1472526112.056, -0.000352479895809665, -0.0686835572123528, 0.0954352542757988, 32910, 31984, 23260, NaN
1472526113.056, -0.00581968668848276, -0.0693657696247101, 0.0956966131925583, 32903, 31966, 23254, NaN
1472526114.056, -0.0117061035707593, -0.0687283501029015, 0.0952332243323326, 32911, 31986, 23265, NaN
1472526114.056, -0.017114594578743, -0.0691951364278793, 0.0946085080504417, 32909, 31984, 23275, NaN
1472526115.064, -0.0222574044018984, -0.0691942200064659, 0.094192311167717, 32914, 31985, 23263, NaN
1472526116.064, -0.0259626433253288, -0.0693197101354599, 0.0943182408809662, 32911, 31990, 23268, NaN
1472526117.064, -0.0286161061376333, -0.0701198801398277, 0.0937454402446747, 32927, 31959, 23264, NaN
1472526118.064, -0.0303270742297173, -0.0704031586647034, 0.0934073776006699, 32903, 31974, 23266, NaN
1472526118.064, -0.031147088855505, -0.070222020149231, 0.0935831442475319, 32915, 31981, 23256, NaN
1472526119.072, -0.0319834463298321, -0.070657305419445, 0.0935434028506279, 32911, 31979, 23276, NaN
1472526120.062, -0.0329896062612534, -0.0703029707074165, 0.0935804024338722, 32902, 31971, 23267, NaN
1472526121.062, -0.0334570407867432, -0.070281520485878, 0.0938907116651535, 32913, 31974, 23275, NaN
1472526122.062, -0.0331176295876503, -0.0705215334892273, 0.0945476070046425, 32907, 31990, 23262, NaN
1472526123.062, -0.0314801782369614, -0.0704879984259605, 0.0943000242114067, 32915, 31993, 23264, NaN
1472526124.062, -0.0287061184644699, -0.0701055750250816, 0.0950860381126404, 32916, 31975, 23272, NaN
1472526125.062, -0.0260185208171606, -0.0697274580597878, 0.0949483588337898, 32909, 31975, 23273, NaN
1472526126.062, -0.0245932936668396, -0.0695606917142868, 0.0946436375379562, 32899, 31989, 23272, NaN
1472526127.062, -0.0227277129888535, -0.0694642663002014, 0.0955792739987373, 32889, 31970, 23268, NaN
1472526128.062, -0.0207601692527533, -0.0694335624575615, 0.0953043848276138, 32913, 31969, 23268, NaN
1472526129.062, -0.0171835664659739, -0.0694794207811356, 0.0958205685019493, 32901, 31980, 23266, NaN
1472526130.062, -0.0144215431064367, -0.0697197541594505, 0.0963876694440842, 32916, 31962, 23272, NaN
1472526131.062, -0.0113599142059684, -0.0703136920928955, 0.0963514223694801, 32907, 31982, 23272, NaN
1472526132.062, -0.0077664302662015, -0.0708300024271011, 0.0966196060180664, 32919, 31979, 23255, NaN
1472526133.062, -0.00560780894011259, -0.070370264351368, 0.0959617123007774, 32918, 31976, 23265, NaN
1472526134.062, -0.00437097018584609, -0.0717171803116798, 0.096246749162674, 32916, 31987, 23265, NaN
1472526135.062, -0.00305379740893841, -0.0713385939598083, 0.0960088223218918, 32904, 31979, 23256, NaN
1472526136.062, -0.00138419668655843, -0.0709248483181, 0.0964350551366806, 32917, 31987, 23266, NaN
1472526137.062, 0.000729502353351563, -0.0705874785780907, 0.0958765596151352, 32912, 31982, 23275, NaN
1472526138.062, 0.00278049171902239, -0.0701317116618156, 0.095207691192627, 32913, 31969, 23267, NaN
1472526139.062, 0.00507868686690927, -0.0704263895750046, 0.0953598767518997, 32906, 31989, 23271, NaN
1472526140.062, 0.0072313561104238, -0.0708524286746979, 0.0951300859451294, 32918, 31970, 23268, NaN
1472526141.062, 0.00841772742569447, -0.0702987611293793, 0.0947141498327255, 32904, 31980, 23276, NaN
1472526142.062, 0.00792284775525331, -0.0696680247783661, 0.0936498492956161, 32910, 31976, 23264, NaN
1472526143.062, 0.00665004132315516, -0.0699207335710526, 0.0939388573169708, 32912, 31979, 23259, NaN
1472526144.062, 0.00517742289230227, -0.0690593495965004, 0.0945067256689072, 32893, 31982, 23274, NaN
1472526145.062, 0.00427425559610128, -0.0683697313070297, 0.0953174009919167, 32908, 31971, 23260, NaN
1472526146.062, 0.00396511610597372, -0.068545289337635, 0.0950024127960205, 32891, 31973, 23280, NaN
1472526147.062, 0.00312522728927433, -0.0679762437939644, 0.0946629643440247, 32893, 31981, 23278, NaN
1472526147.062, 0.00237304926849902, -0.0682023540139198, 0.0951257348060608, 32904, 31975, 23266, NaN
1472526148.066, 0.00142243842128664, -0.0687483847141266, 0.0949955210089684, 32914, 31982, 23267, NaN
1472526149.066, 0.000467478501377627, -0.0694821625947952, 0.0948539227247238, 32917, 31988, 23265, NaN
1472526150.066, 0.000127073479234241, -0.0690311565995216, 0.0944120958447456, 32924, 31983, 23269, NaN
1472526151.066, 0.000120006952784024, -0.068760447204113, 0.0943412929773331, 32897, 31989, 23270, NaN
1472526151.066, 0.000417455070419237, -0.0684399083256721, 0.0944685414433479, 32906, 31990, 23261, NaN
1472526152.07, 0.000847146497108042, -0.0687512829899788, 0.0946129336953163, 32913, 31977, 23276, NaN
1472526153.07, 0.00199722382239997, -0.0697504952549934, 0.0942135006189346, 32914, 31977, 23282, NaN
1472526154.07, 0.00326967635191977, -0.0708002969622612, 0.094132699072361, 32903, 31978, 23268, NaN
1472526155.07, 0.0030198753811419, -0.0706394091248512, 0.0940301269292831, 32917, 31972, 23268, NaN
1472526155.07, 0.00344879529438913, -0.0702039524912834, 0.0932988524436951, 32902, 31974, 23269, NaN
1472526156.076, 0.00452876463532448, -0.0699178427457809, 0.0937338098883629, 32907, 31974, 23271, NaN
1472526157.076, 0.00445677014067769, -0.0703725069761276, 0.0936750024557114, 32907, 31968, 23268, NaN
1472526158.076, 0.00358382402919233, -0.0703418552875519, 0.0936291813850403, 32919, 31976, 23261, NaN
1472526159.076, 0.00287557626143098, -0.0706683695316315, 0.0933885723352432, 32921, 31978, 23258, NaN
1472526159.076, 0.00301943975500762, -0.0712411552667618, 0.0936203598976135, 32919, 31979, 23255, NaN
1472526160.082, 0.00296557764522731, -0.071797251701355, 0.0930275395512581, 32902, 31978, 23277, NaN
1472526161.082, 0.00267612049356103, -0.0718743875622749, 0.0931554511189461, 32907, 31969, 23274, NaN
1472526162.082, 0.0024618071038276, -0.0726415440440178, 0.0932623445987701, 32901, 31980, 23268, NaN
1472526163.082, 0.00229811109602451, -0.0730570107698441, 0.0932383462786674, 32893, 31972, 23266, NaN
1472526163.082, 0.0019501824863255, -0.0737168043851852, 0.0930168852210045, 32915, 31976, 23262, 120.080116271973
1472526164.09, 0.00157297786790878, -0.0734356120228767, 0.0933295115828514, 32906, 31967, 23270, NaN
1472526165.09, 0.00128172012045979, -0.0733058601617813, 0.0930038616061211, 32911, 31985, 23275, NaN
1472526166.09, 0.00135976553428918, -0.0737387910485268, 0.0934435948729515, 32908, 31979, 23267, NaN
1472526167.09, 0.00173198897391558, -0.0733017176389694, 0.0936288610100746, 32902, 31974, 23270, NaN
1472526168.09, 0.00127978029195219, -0.0729947090148926, 0.0934037566184998, 32903, 31989, 23263, NaN
1472526169.09, 0.000962856342084706, -0.0725796967744827, 0.0935996174812317, 32906, 31974, 23265, NaN
1472526170.09, 0.000756144407205284, -0.0730581507086754, 0.093981496989727, 32910, 31988, 23265, NaN
1472526171.09, 0.000814800965599716, -0.0726404786109924, 0.0935751423239708, 32899, 31977, 23274, NaN
1472526171.09, 0.000691638444550335, -0.0732405260205269, 0.0933174043893814, 32915, 31982, 23282, NaN
1472526172.098, 0.00059591222088784, -0.0730538964271545, 0.0934060141444206, 32908, 31985, 23280, NaN
1472526173.098, 0.000226887394092046, -0.0729690864682198, 0.093346543610096, 32898, 31976, 23266, NaN
1472526174.098, 6.55084077152424e-05, -0.0729773864150047, 0.0926758274435997, 32924, 31971, 23264, NaN
1472526175.098, 0.000818114087451249, -0.0726922675967216, 0.0937283411622047, 32905, 31983, 23259, NaN
1472526176.088, 0.00306849810294807, -0.0727537050843239, 0.093009926378727, 32909, 31980, 23262, NaN
1472526177.088, 0.00666714180260897, -0.0728698670864105, 0.0927219390869141, 32902, 31985, 23278, NaN
1472526178.088, 0.0115000605583191, -0.0724624767899513, 0.0930331125855446, 32905, 31980, 23281, NaN
1472526179.088, 0.0173776857554913, -0.0728741511702538, 0.0933365672826767, 32905, 31972, 23283, NaN
1472526180.088, 0.0237500015646219, -0.0734675079584122, 0.0929744318127632, 32908, 31982, 23264, NaN
1472526181.088, 0.0305194016546011, -0.073990523815155, 0.0925861075520515, 32911, 31983, 23268, NaN
1472526182.088, 0.0372420325875282, -0.0742495283484459, 0.0922733023762703, 32903, 31973, 23261, NaN
1472526183.088, 0.0438616760075092, -0.0738404989242554, 0.0936800464987755, 32899, 31972, 23274, NaN
1472526184.088, 0.0503821969032288, -0.073473259806633, 0.0932817161083221, 32899, 31975, 23262, NaN
1472526185.088, 0.0554042421281338, -0.073294036090374, 0.0940128117799759, 32910, 31979, 23268, NaN
1472526186.088, 0.0586521774530411, -0.0733934640884399, 0.0944147109985352, 32907, 31974, 23274, NaN
1472526187.088, 0.0607898607850075, -0.0743676200509071, 0.0946749299764633, 32911, 31971, 23266, NaN
1472526188.088, 0.0620264634490013, -0.0749407261610031, 0.0944704040884972, 32911, 31964, 23266, NaN
1472526189.088, 0.0620893388986588, -0.0740589797496796, 0.0941950157284737, 32915, 31985, 23264, NaN
1472526190.088, 0.0614898577332497, -0.0736295282840729, 0.0941416919231415, 32918, 31973, 23267, NaN
1472526191.088, 0.0595130212605, -0.0734958872199059, 0.0938353389501572, 32912, 31967, 23253, NaN
1472526192.088, 0.056545477360487, -0.073307141661644, 0.0934982895851135, 32911, 31985, 23269, NaN
1472526193.088, 0.0520423576235771, -0.0725831985473633, 0.0932737961411476, 32914, 31976, 23260, NaN
1472526193.448, 0.0503247492015362, -0.072791613638401, 0.0936670377850533, 32904, 31974, 23270, NaN
1472526194.448, 0.0454246029257774, -0.0721640810370445, 0.0936753302812576, 32923, 31977, 23272, NaN
1472526195.448, 0.0402206778526306, -0.0712901204824448, 0.0945610851049423, 32905, 31982, 23263, NaN
1472526196.448, 0.0350251421332359, -0.0716028660535812, 0.0942437276244164, 32911, 31965, 23262, NaN
1472526197.448, 0.0285478010773659, -0.07162856310606, 0.0947933867573738, 32909, 31980, 23263, NaN
1472526198.448, 0.0212410502135754, -0.0709698274731636, 0.0948751047253609, 32911, 31971, 23273, NaN
1472526199.448, 0.0134322121739388, -0.0715558379888535, 0.0958062335848808, 32914, 31984, 23272, NaN
1472526200.448, 0.00634438218548894, -0.0718792751431465, 0.0958776772022247, 32915, 31971, 23269, NaN
1472526201.448, -4.28855055361055e-05, -0.0717499628663063, 0.0959252193570137, 32899, 31979, 23276, NaN
1472526202.448, -0.00655761267989874, -0.0715122148394585, 0.0959495902061462, 32909, 31979, 23280, NaN
1472526203.448, -0.0130952140316367, -0.0727449581027031, 0.0966477021574974, 32902, 31968, 23264, NaN
1472526204.448, -0.0194246284663677, -0.0724433213472366, 0.0964379161596298, 32913, 31974, 23266, NaN
1472526204.45, -0.024301640689373, -0.0727049931883812, 0.0966653004288673, 32902, 31973, 23268, NaN
1472526205.452, -0.0283141285181046, -0.0727376788854599, 0.0974101051688194, 32908, 31979, 23279, NaN
1472526206.452, -0.0334385670721531, -0.0725266560912132, 0.0967530459165573, 32913, 31972, 23266, NaN
1472526207.452, -0.0379997305572033, -0.0728365555405617, 0.0962633416056633, 32922, 31979, 23267, NaN
1472526208.452, -0.0406521558761597, -0.0735124424099922, 0.0965378955006599, 32902, 31959, 23280, NaN
1472526208.452, -0.0417985543608665, -0.0726641118526459, 0.096394382417202, 32912, 31986, 23262, NaN
1472526209.456, -0.04228875041008, -0.0720373913645744, 0.0958116054534912, 32910, 31965, 23264, NaN
1472526210.456, -0.042767308652401, -0.0716151297092438, 0.0963221415877342, 32913, 31971, 23262, NaN
1472526211.456, -0.0425045937299728, -0.0715758502483368, 0.0963509529829025, 32910, 31972, 23256, NaN
1472526212.456, -0.0401488244533539, -0.0726654976606369, 0.0960024744272232, 32899, 31968, 23276, NaN